Total_Precipitation_Accumulation
2.39 2.52 2.37 2.25 1.98 2.12 2.38 2.48 2.24 2.46 2.44 2.41 2.36 2.35 2.34 2.05 1.88 1.84 1.89 2.06 2.02 1.99 2.18 2.24 2.13 2.08 2.02 1.84 1.66 1.43 1.24 1.14 1.02 0.90 0.80 0.75 0.70 0.61 0.55 0.42 0.36 0.29 0.26
2.13 2.19 2.12 2.10 1.99 2.05 2.23 2.23 2.20 2.49 2.59 2.53 2.22 2.06 2.05 2.05 1.97 1.84 1.97 2.10 2.14 1.96 2.07 2.36 2.48 2.45 2.47 2.28 2.03 1.77 1.53 1.34 1.11 0.92 0.82 0.79 0.72 0.67 0.70 0.69 0.70 0.42 0.30
1.87 1.96 1.96 1.91 1.96 1.91 1.94 1.92 1.98 2.21 2.20 2.17 2.00 1.85 1.88 1.93 1.98 1.94 1.86 1.93 2.03 2.10 2.08 2.24 2.45 2.51 2.70 2.71 2.54 2.18 1.88 1.58 1.27 0.97 0.79 0.75 0.72 0.62 0.61 0.66 0.69 0.49 0.34
1.63 1.74 1.64 1.63 1.62 1.57 1.58 1.77 1.84 2.01 2.15 2.19 2.15 1.92 1.97 2.05 1.92 2.00 1.99 1.95 2.20 2.06 2.34 2.47 2.45 2.41 2.72 3.03 3.13 2.89 2.44 1.91 1.50 1.20 0.96 0.83 0.78 0.69 0.60 0.58 0.57 0.54 0.40
1.52 1.61 1.62 1.62 1.37 1.42 1.47 1.44 1.71 1.87 2.11 2.13 1.82 1.87 1.75 1.78 1.81 1.70 1.92 1.82 1.98 2.12 2.34 2.41 2.51 2.41 2.71 3.33 3.80 3.90 3.40 2.65 2.04 1.69 1.51 1.32 1.14 0.90 0.76 0.72 0.65 0.59 0.53
1.52 1.51 1.42 1.37 1.21 1.36 1.55 1.68 2.04 1.96 1.88 1.88 1.59 1.82 1.66 1.45 1.55 1.67 1.67 1.77 1.85 1.71 1.97 2.28 2.54 2.13 2.47 3.13 3.61 3.99 4.09 3.71 2.99 2.37 2.07 1.87 1.68 1.30 0.91 0.78 0.74 0.69 0.64
1.55 1.55 1.45 1.56 1.33 1.33 1.39 1.43 1.61 1.70 1.61 1.64 1.98 2.09 1.71 1.41 1.46 1.48 1.49 1.74 1.81 1.78 2.05 2.43 2.57 2.51 2.21 2.15 2.31 2.91 3.67 4.11 3.91 3.26 2.76 2.38 2.14 1.73 1.26 0.98 0.84 0.78 0.74
1.46 1.38 1.57 1.48 1.39 1.45 1.40 1.41 1.57 1.66 1.61 1.66 1.87 2.08 1.85 1.87 1.68 1.28 1.51 1.61 1.67 1.88 2.00 2.12 2.42 2.67 2.35 2.41 1.78 1.90 2.69 3.38 4.02 4.01 3.42 2.75 2.39 2.11 1.73 1.41 1.15 0.96 0.89
1.32 1.44 1.43 1.50 1.54 1.30 1.44 1.52 1.49 1.53 1.58 1.53 1.54 1.85 1.88 1.89 1.68 1.34 1.32 1.39 1.57 1.85 1.94 2.07 1.94 2.13 2.29 2.57 2.38 1.85 2.00 2.29 3.15 4.01 3.95 3.26 2.63 2.17 1.93 1.80 1.63 1.35 1.19
1.32 1.29 1.32 1.53 1.59 1.37 1.53 1.22 1.30 1.51 1.58 1.43 1.45 1.42 1.45 1.61 1.73 1.69 1.47 1.37 1.45 1.56 1.67 1.80 1.92 2.04 2.11 2.37 2.45 1.80 1.41 1.57 2.27 3.28 3.87 3.67 3.09 2.46 2.13 2.17 2.41 2.35 1.92
1.61 1.36 1.35 1.53 1.63 1.54 1.54 1.42 1.62 1.46 1.36 1.33 1.37 1.44 1.46 1.43 1.33 1.56 1.65 1.58 1.50 1.31 1.33 1.44 1.54 1.65 1.68 1.94 2.20 1.65 1.29 1.41 1.66 2.21 2.74 3.12 3.11 2.88 2.66 2.72 3.19 3.54 3.35
1.63 1.55 1.52 1.70 1.72 1.62 1.60 1.52 1.57 1.49 1.46 1.46 1.36 1.33 1.55 1.54 1.42 1.55 1.46 1.45 1.43 1.16 1.17 1.27 1.31 1.40 1.52 1.74 1.70 1.51 1.55 1.66 1.58 1.60 1.72 1.99 2.35 2.60 2.82 3.02 3.30 3.73 3.94
1.43 1.55 1.64 1.82 1.71 1.64 1.57 1.58 1.59 1.60 1.63 1.65 1.52 1.35 1.35 1.45 1.47 1.46 1.43 1.28 1.26 1.19 1.23 1.18 1.19 1.35 1.49 1.88 1.97 1.73 1.68 1.82 1.59 1.43 1.36 1.38 1.54 1.81 2.09 2.40 2.83 3.28 3.67
1.39 1.53 1.62 1.57 1.54 1.53 1.45 1.59 1.51 1.48 1.52 1.56 1.48 1.68 1.60 1.38 1.50 1.52 1.59 1.71 1.63 1.54 1.52 1.48 1.53 1.67 1.84 1.99 2.14 1.94 1.66 1.56 1.34 1.25 1.22 1.21 1.26 1.35 1.50 1.65 1.86 2.16 2.42
1.37 1.40 1.36 1.37 1.41 1.44 1.53 1.67 1.58 1.52 1.59 1.49 1.49 1.79 1.70 1.44 1.43 1.50 1.58 1.80 2.04 1.86 1.71 1.76 1.90 2.01 2.00 2.01 2.02 1.85 1.68 1.55 1.33 1.19 1.14 1.10 1.09 1.10 1.15 1.20 1.28 1.43 1.56
1.34 1.39 1.36 1.37 1.38 1.31 1.38 1.54 1.48 1.55 1.63 1.62 1.63 1.69 1.69 1.59 1.58 1.62 1.68 1.80 2.02 2.03 1.86 1.80 2.04 2.14 2.00 1.83 2.00 1.94 1.75 1.63 1.37 1.19 1.07 1.04 1.06 1.08 1.09 1.09 1.09 1.14 1.19
1.37 1.40 1.42 1.45 1.43 1.39 1.42 1.50 1.43 1.54 1.61 1.72 1.72 1.65 1.65 1.79 1.82 1.71 1.75 1.79 1.96 2.15 2.09 1.97 2.11 2.15 2.04 1.84 1.80 1.80 1.73 1.66 1.47 1.40 1.22 1.13 1.09 1.06 1.06 1.08 1.12 1.12 1.09
1.47 1.46 1.47 1.53 1.46 1.48 1.53 1.44 1.45 1.52 1.59 1.63 1.72 1.86 1.87 1.90 1.86 1.77 1.83 1.86 2.01 2.26 2.27 2.14 2.11 2.13 2.07 1.98 1.87 1.71 1.52 1.47 1.46 1.58 1.41 1.27 1.19 1.15 1.10 1.05 1.02 1.00 0.96
1.56 1.52 1.46 1.48 1.53 1.60 1.60 1.44 1.40 1.39 1.36 1.34 1.48 1.74 1.98 2.23 2.12 1.96 1.90 1.89 1.97 2.08 2.26 2.14 2.07 2.22 2.19 2.08 1.92 1.69 1.52 1.45 1.26 1.35 1.38 1.27 1.14 1.05 1.00 0.96 0.94 0.91 0.86
1.47 1.53 1.55 1.53 1.51 1.50 1.48 1.47 1.48 1.43 1.35 1.27 1.31 1.42 1.57 1.79 1.99 2.10 1.95 1.82 1.88 2.01 2.16 2.19 2.27 2.52 2.58 2.41 2.11 1.86 1.73 1.58 1.43 1.23 1.25 1.19 1.10 1.01 0.98 0.95 0.92 0.91 0.90
1.52 1.65 1.72 1.68 1.62 1.57 1.48 1.57 1.67 1.54 1.53 1.44 1.40 1.38 1.31 1.43 1.57 1.74 1.75 1.92 1.97 1.97 2.09 2.20 2.40 2.82 2.85 2.61 2.17 1.94 1.85 1.79 1.60 1.37 1.26 1.10 0.98 0.89 0.90 0.96 0.96 0.92 0.87
1.93 1.97 1.89 1.83 1.79 1.60 1.69 1.69 1.66 1.65 1.71 1.67 1.61 1.55 1.44 1.35 1.38 1.47 1.53 1.66 1.82 1.88 1.95 2.07 2.26 2.57 2.71 2.58 2.31 2.06 1.85 1.73 1.59 1.43 1.32 1.25 1.09 1.01 0.91 0.84 0.94 0.93 0.91
2.07 2.11 2.15 2.10 2.03 2.05 1.97 1.68 1.62 1.62 1.70 1.72 1.80 1.83 1.55 1.33 1.42 1.39 1.48 1.50 1.49 1.58 1.69 1.81 2.02 2.22 2.52 2.62 2.48 2.10 1.92 1.76 1.52 1.40 1.34 1.29 1.19 1.08 0.94 0.89 0.96 0.84 0.83
2.02 1.99 1.94 1.87 1.85 1.83 1.78 1.54 1.44 1.36 1.48 1.55 1.56 1.56 1.55 1.42 1.33 1.34 1.36 1.29 1.23 1.25 1.31 1.35 1.48 1.75 2.04 2.41 2.59 2.37 2.18 1.97 1.71 1.50 1.29 1.26 1.21 1.09 0.96 0.87 0.95 0.83 0.74
1.89 1.79 1.70 1.67 1.65 1.68 1.69 1.50 1.38 1.26 1.30 1.32 1.33 1.35 1.39 1.30 1.31 1.20 1.13 1.13 1.11 1.06 1.05 1.07 1.12 1.29 1.55 1.88 2.23 2.37 2.10 1.77 1.60 1.39 1.24 1.14 1.08 1.11 1.08 0.94 0.91 0.94 0.79
2.00 1.91 1.82 1.80 1.77 1.81 1.90 1.66 1.51 1.37 1.42 1.43 1.50 1.47 1.42 1.29 1.24 1.09 1.00 1.02 0.98 0.91 0.93 0.91 0.88 0.94 1.06 1.33 1.71 1.86 1.93 1.70 1.46 1.32 1.06 0.99 0.96 0.98 1.04 0.90 0.75 0.74 0.73